Simultaneous Nadir Overpasses (SNOs) Predictions

Prediction of SNOs between GOES-17 and METOP-C Satellite Orbit:

Table of predicted SNOs for the next 14.0 days since TLE Epoch: 4/18/2025
Index Date Time (GOES-17) GOES-17 Lat,Lon METOP-C Lat,Lon Distance(km) Time Diff (sec)
1 04/19/2025 04:32:27 -0.03,-104.35 -0.32,-105.75 158.73 80
2 04/20/2025 04:14:26 -0.02,-104.35 0.75,-100.74 410.37 80
3 04/21/2025 16:33:16 0.02,-104.40 0.24,-105.30 103.54 80
4 04/22/2025 16:09:56 0.02,-104.39 -0.89,-100.31 465.65 80
5 04/24/2025 04:28:53 -0.01,-104.33 -0.15,-104.89 63.93 80
6 04/26/2025 16:27:02 0.01,-104.38 0.05,-104.45 8.37 80
7 04/29/2025 04:25:19 -0.01,-104.32 0.07,-104.04 31.54 80
8 04/30/2025 16:44:08 0.01,-104.36 0.96,-108.60 482.56 80
9 05/01/2025 16:26:07 0.01,-104.36 -0.13,-103.59 86.52 80
